GFSFLT1_con_lsi_207.txt.gz
Lid_Strength_Index
-1 -1 -1 -1 -1 -1 -1 -1 -2 -1 -1 -2 -2 -1 -1 -1 1 1 -0 -1 -1 -1 -2 -1 -2 -1 -2 -2 -1 -1 -1 -1 -1
-1 -1 -1 -1 -1 -1 -1 -1 -1 -1 -1 -0 -1 -1 -0 1 1 1 -0 -0 -2 -2 -2 -2 -2 -2 -2 -2 -2 -2 -1 -1 -1
-0 -0 -0 -0 -0 -0 -0 -0 -0 -0 -0 0 0 0 0 2 2 1 -0 -1 -2 -2 -2 -2 -2 -2 -2 -1 -2 -2 -2 -1 -2
0 0 0 -0 0 -0 -0 -0 -0 -0 0 0 0 0 1 3 3 3 2 -0 -1 -2 -2 -2 -2 -2 -1 -1 -2 -1 -1 -1 -1
2 1 1 0 0 0 0 0 1 1 1 1 1 1 3 3 3 3 2 -0 -1 -1 -2 -2 -1 -1 -1 -1 -1 -1 -1 -1 -1
3 2 1 1 1 1 1 1 1 2 3 2 2 3 3 3 3 3 2 -0 -1 -1 -2 -1 -1 -1 -1 -1 -1 -0 -0 -1 -1
4 3 3 2 2 2 2 2 2 3 3 3 3 3 3 3 3 3 1 -0 -1 -1 -1 -2 -2 -2 -1 -1 -1 -1 -0 0 -1
4 4 4 3 4 4 3 3 3 3 3 3 3 3 3 3 3 3 1 0 -1 -1 -1 -1 -2 -2 -2 -2 -2 -1 -1 -1 -0
5 4 4 4 4 4 4 3 3 3 4 4 4 3 3 3 3 3 2 0 -0 -1 -1 -1 -1 -2 -1 -1 -2 -1 -1 -1 -1
4 4 4 4 4 4 4 4 4 4 4 4 4 4 3 3 3 2 2 1 -0 -1 -2 -2 -2 -1 -1 -1 -1 -1 -1 -1 -1
5 5 4 4 4 4 4 4 4 4 4 4 4 4 3 3 3 2 2 1 -0 -1 -2 -2 -2 -2 -1 -1 -1 -1 -1 -1 -1
5 5 4 4 4 4 4 4 4 4 4 4 4 3 3 3 3 3 2 1 1 -1 -2 -2 -2 -2 -2 -2 -2 -2 -2 -2 -2
5 4 4 4 4 4 4 4 4 4 4 4 4 3 3 3 3 3 2 1 1 0 -1 -2 -2 -2 -2 -2 -2 -2 -2 -2 -2
4 4 4 4 4 4 4 4 4 5 4 4 4 4 4 4 3 3 2 1 1 1 -1 -1 -2 -2 -2 -2 -2 -2 -2 -2 -2
4 4 4 4 4 4 4 4 4 5 5 5 4 4 4 3 3 3 2 2 1 0 -1 -1 -1 -1 -2 -2 -2 -2 -2 -2 -2
5 5 4 4 4 5 4 4 4 4 4 4 4 4 4 3 3 3 3 3 2 0 -1 -0 -0 0 -0 -1 -1 -1 -1 -1 -2
5 5 5 4 4 4 4 4 5 4 5 6 6 7 5 4 4 3 3 3 3 2 1 -0 1 1 0 0 -0 -0 -1 -1 -1
5 5 5 4 4 4 4 4 5 5 4 5 6 7 7 6 4 4 3 3 3 3 1 -0 1 1 1 1 1 0 0 -1 -1
5 5 5 4 4 4 4 3 4 5 5 4 4 4 5 7 7 4 4 4 4 3 1 1 1 1 2 2 2 1 1 0 -0
5 5 5 4 4 4 4 4 4 4 5 4 4 5 5 5 6 7 6 4 4 3 1 1 2 2 3 3 3 2 2 1 1

GFSFLT1_con_lsi_210.txt.gz
Lid_Strength_Index
-1 -1 -1 -1 -1 -1 -1 -1 -1 -1 -1 -1 -1 -1 -1 -0 1 1 1 0 -2 -2 -1 -1 -1 -1 -1 -1 -1 -1 -1 -1 -1
-1 -1 -1 -1 -1 -1 -1 -1 -1 -1 -0 -0 -0 -0 -0 1 1 1 0 -0 -1 -2 -2 -2 -2 -2 -1 -1 -1 -2 -1 -1 -1
-0 -0 -0 -0 -0 -0 -0 -1 -1 -0 -0 -0 0 0 0 1 2 1 1 -1 -2 -2 -2 -2 -2 -2 -2 -1 -1 -2 -2 -1 -1
0 0 -0 -0 -0 -0 -0 -0 0 0 1 1 1 1 2 2 2 2 2 0 -1 -2 -2 -2 -2 -2 -1 -1 -1 -1 -1 -1 -1
1 1 1 0 0 0 0 0 1 1 1 1 1 2 2 2 2 2 1 -0 -1 -1 -2 -1 -1 -1 -1 -1 -1 -1 -1 -1 -1
2 2 1 1 1 1 1 1 1 2 2 2 2 2 2 2 2 1 1 -0 -1 -1 -1 -2 -2 -2 -1 -1 -1 -1 -0 -0 -1
3 2 3 2 2 2 2 2 2 1 2 2 1 2 2 2 2 2 1 -0 -1 -1 -1 -1 -1 -1 -2 -2 -1 -1 -1 -1 -0
2 2 2 2 2 2 2 2 2 2 2 2 2 2 2 2 2 2 1 -0 -1 -1 -1 -1 -1 -2 -2 -1 -2 -2 -1 -1 -1
3 2 2 2 2 2 2 2 3 3 3 2 2 2 2 2 2 2 1 0 -0 -1 -1 -2 -2 -2 -1 -2 -2 -1 -1 -1 -1
3 2 2 2 3 3 3 3 3 3 3 2 2 2 2 2 1 1 1 0 -0 -1 -2 -2 -2 -2 -2 -2 -1 -1 -1 -1 -1
3 3 3 3 3 3 3 3 3 3 2 2 3 2 2 2 1 1 1 1 -0 -1 -2 -2 -2 -2 -2 -2 -2 -2 -2 -2 -2
3 3 3 3 3 3 3 3 2 3 2 2 2 2 2 2 1 1 1 0 -0 -1 -2 -2 -2 -2 -2 -2 -2 -2 -2 -2 -2
3 3 3 3 3 3 3 3 3 3 3 2 2 2 2 2 1 1 0 -0 -0 -1 -2 -2 -2 -2 -2 -2 -2 -2 -2 -2 -2
3 3 2 3 3 3 3 3 3 4 3 2 2 2 2 2 2 1 1 -0 -1 -1 -0 -1 -1 -2 -2 -2 -2 -2 -2 -2 -2
3 2 3 2 3 4 3 4 3 3 3 3 2 2 2 2 2 1 1 0 -1 -1 -1 -1 -0 -1 -1 -1 -2 -2 -2 -2 -2
3 2 3 2 3 3 4 3 4 4 3 3 3 2 2 2 1 1 1 1 0 -1 -1 -1 -1 -0 -0 -0 -1 -1 -1 -2 -2
3 3 3 3 3 3 3 3 4 3 3 5 4 5 4 2 2 1 2 2 1 1 -0 -1 0 -0 -0 0 0 0 -0 -1 -1
3 3 3 3 3 3 2 3 3 4 3 4 5 6 6 5 2 3 2 2 2 1 0 -0 -1 -0 0 0 1 1 1 0 -0
3 3 3 3 2 3 2 2 2 3 4 3 4 4 4 6 6 3 3 3 3 2 1 0 1 0 1 2 2 2 2 1 0
4 3 3 3 2 2 2 2 2 3 3 4 4 4 4 4 5 6 5 3 2 2 2 1 1 2 2 2 2 3 2 2 1

GFSFLT1_con_lsi_213.txt.gz
Lid_Strength_Index
-2 -2 -1 -1 -1 -1 -1 -1 -1 -1 -1 -1 -1 -1 -1 0 1 1 0 0 -2 -2 -2 -2 -2 -2 -2 -1 -1 -1 -1 -1 -1
-1 -1 -1 -1 -1 -1 -1 -1 -1 -1 -0 -0 -0 -0 0 2 2 2 1 -1 -2 -2 -2 -2 -2 -2 -2 -2 -1 -1 -2 -2 -1
-0 -0 -0 -0 -1 -1 -0 -0 -0 -0 0 0 0 0 1 2 2 2 1 -0 -1 -2 -2 -2 -2 -2 -2 -2 -1 -1 -2 -2 -1
1 -0 -0 0 -0 -0 -0 0 0 0 1 1 1 1 1 2 2 2 1 -0 -1 -2 -2 -2 -2 -2 -1 -1 -1 -1 -1 -1 -1
1 1 1 0 0 0 0 1 1 1 2 2 1 1 1 2 2 1 1 -1 -1 -1 -1 -2 -2 -2 -2 -2 -2 -1 -1 -1 -1
2 2 1 1 1 1 1 1 1 1 1 2 2 1 2 2 2 1 0 -1 -2 -2 -1 -1 -2 -2 -2 -2 -2 -2 -2 -1 -1
2 2 2 2 2 2 2 2 1 1 2 2 1 2 2 2 2 2 -0 -1 -1 -1 -1 -1 -1 -2 -2 -2 -2 -2 -2 -2 -2
2 2 2 1 1 2 1 2 2 2 3 3 3 2 2 2 2 2 0 -0 -1 -1 -1 -2 -1 -1 -2 -1 -2 -2 -2 -1 -1
3 2 2 2 2 2 2 3 3 3 3 2 2 2 2 2 2 2 0 -0 -1 -2 -2 -2 -2 -2 -2 -2 -1 -1 -2 -1 -1
2 3 2 2 2 2 3 3 3 3 3 2 2 2 2 2 2 1 0 0 -1 -2 -2 -2 -2 -1 -2 -2 -2 -2 -2 -2 -2
2 3 3 3 3 3 3 3 3 3 3 2 2 2 2 2 2 1 1 -0 -1 -2 -2 -2 -2 -2 -2 -2 -2 -2 -2 -2 -2
2 2 3 3 3 3 3 3 3 3 3 2 2 2 2 2 2 1 1 0 -1 -2 -2 -2 -2 -2 -2 -2 -2 -2 -2 -2 -2
2 2 3 3 3 3 3 3 4 4 3 3 2 2 2 2 2 1 1 0 -0 -1 -1 -2 -2 -2 -2 -2 -2 -2 -2 -2 -2
3 3 2 3 3 3 4 4 4 4 4 3 2 2 2 2 2 2 1 -0 -1 -1 -1 -1 -1 -1 -1 -2 -2 -2 -2 -2 -2
3 3 3 3 3 3 4 4 4 4 4 4 3 2 2 2 2 2 1 1 -0 -1 -1 -1 -0 -1 -0 -1 -1 -2 -2 -2 -2
3 3 3 3 3 3 3 4 4 4 4 3 3 2 2 2 2 2 1 1 1 -0 -1 -1 -0 -0 -1 -0 -0 -0 -1 -1 -1
4 4 3 3 3 3 3 4 4 4 3 5 4 5 4 3 3 2 2 2 1 1 0 -0 -0 -0 -0 1 1 1 0 -1 -1
3 3 3 3 3 3 3 3 3 4 3 4 5 6 7 5 3 3 3 3 2 1 1 0 0 0 1 1 2 2 1 1 -0
3 3 4 3 3 3 3 3 3 3 4 3 4 3 5 7 7 3 3 3 3 2 2 1 1 1 1 1 3 2 2 1 1
4 3 3 3 3 3 3 3 3 3 4 4 4 4 4 4 5 7 5 4 3 2 2 1 1 2 2 2 3 3 2 1 1

GFSFLT1_con_lsi_219.txt.gz
Lid_Strength_Index
-1 -1 -1 -1 -1 -1 -1 -1 -1 -1 -1 -1 -0 -0 -0 1 5 4 1 1 -2 -2 -2 -2 -2 -2 -2 -2 -2 -2 -1 -1 -2
-1 -1 -1 -1 -1 -1 -1 -1 -0 -0 0 0 0 -0 -0 2 5 3 2 1 -2 -2 -2 -2 -2 -2 -2 -2 -2 -2 -2 -2 -1
-1 -0 -1 -1 -1 -1 -1 -0 -0 0 0 0 0 0 -0 3 5 3 2 -2 -1 -1 -2 -2 -2 -2 -2 -2 -2 -2 -2 -2 -2
-0 0 -0 -0 0 -0 0 -0 -0 0 -0 0 0 -0 -0 5 4 2 2 -2 -2 -2 -2 -2 -2 -2 -2 -2 -2 -2 -2 -2 -2
1 1 1 0 0 0 0 -0 -0 -0 -0 0 -0 -1 2 5 4 2 1 -2 -2 -2 -1 -1 -2 -2 -2 -2 -2 -2 -2 -2 -2
4 1 1 1 1 1 0 -0 -0 -0 1 0 -0 1 6 5 4 3 -1 -1 -2 -2 -2 -1 -1 -1 -2 -2 -2 -2 -2 -2 -2
4 3 1 1 1 1 0 0 1 3 5 6 4 6 6 5 4 2 -1 -2 -2 -2 -2 -2 -2 -2 -2 -2 -2 -2 -2 -2 -2
6 5 5 5 3 5 4 5 5 6 6 6 6 6 6 5 4 1 -1 -2 -2 -2 -2 -2 -2 -2 -2 -2 -2 -2 -2 -2 -2
7 6 6 6 6 6 6 6 6 6 6 6 6 6 6 5 4 2 -1 -2 -2 -2 -2 -2 -2 -2 -2 -2 -2 -2 -2 -2 -2
7 7 6 6 6 6 6 6 6 6 6 5 5 5 6 5 4 3 -1 -1 -2 -2 -2 -2 -2 -2 -2 -2 -2 -2 -2 -2 -2
7 7 6 6 7 7 6 6 6 6 6 5 5 6 5 5 5 4 2 -1 -1 -1 -2 -2 -2 -2 -2 -2 -2 -2 -2 -2 -2
7 6 7 7 7 7 7 6 6 6 5 6 5 5 6 5 4 4 3 2 -0 -1 -1 -2 -2 -2 -2 -2 -2 -2 -2 -2 -2
7 7 8 7 6 7 7 7 6 7 6 6 6 6 5 5 5 4 4 3 2 1 -0 -1 -1 -1 -2 -2 -2 -2 -1 -1 -1
6 6 7 6 6 7 7 7 7 8 8 6 6 6 6 5 5 5 4 4 3 1 -1 -1 -1 -1 -1 -1 -1 -1 -1 -1 -1
6 6 6 6 7 7 7 7 7 8 8 6 6 6 6 5 6 6 4 4 3 2 1 1 0 -1 -0 -0 -1 -1 -1 -1 -0
6 6 6 6 7 7 7 7 8 8 8 8 8 6 6 6 6 6 6 5 4 3 3 1 2 2 0 1 1 0 0 -0 -0
6 6 6 6 6 6 7 7 7 7 7 9 9 9 7 7 6 6 5 6 5 5 4 2 2 2 2 3 2 2 1 0 -0
5 6 6 6 6 6 6 6 7 8 7 8 9 11 11 10 7 7 7 6 7 6 5 3 3 3 3 4 4 2 2 1 0
5 5 6 6 6 7 6 6 6 7 8 7 6 8 8 11 11 8 7 7 6 7 6 4 4 5 5 4 3 2 2 2 1
5 6 6 6 6 6 6 6 6 6 7 7 7 8 8 8 10 11 9 7 7 7 6 5 5 5 5 6 5 2 2 2 1

GFSFLT1_con_lsi_225.txt.gz
Lid_Strength_Index
-2 -1 -1 -1 -1 -1 -1 -0 -0 -0 -1 -1 -1 -0 0 2 4 3 2 2 -2 -2 -2 -2 -2 -2 -2 -2 -2 -2 -2 -2 -2
-1 -1 -1 -1 -1 -0 -1 -1 -1 -1 -1 -1 -1 -0 1 4 4 3 2 1 -2 -2 -2 -2 -2 -2 -2 -2 -2 -2 -2 -2 -2
-1 -1 -0 -0 -0 -1 -0 -0 -1 -1 -1 -1 -1 0 1 3 3 3 2 -2 -2 -2 -2 -2 -2 -2 -2 -2 -2 -2 -2 -2 -2
-0 -0 -0 -0 -0 -0 -0 -0 -0 -1 -1 -1 -0 0 1 4 3 2 2 -2 -2 -2 -2 -2 -2 -2 -2 -2 -2 -2 -2 -2 -2
-0 0 -0 0 -0 -0 0 0 -0 -1 -1 -1 0 1 1 4 3 2 0 -2 -2 -2 -1 -2 -1 -2 -2 -2 -2 -2 -2 -2 -2
4 1 0 0 -0 0 0 0 0 0 -1 0 1 3 5 4 3 2 -2 -2 -2 -2 -2 -2 -2 -2 -2 -2 -2 -2 -2 -2 -2
5 3 1 1 1 1 0 1 1 4 6 4 4 6 5 4 3 1 -2 -2 -2 -2 -2 -2 -2 -2 -2 -2 -2 -2 -2 -2 -2
8 8 8 7 5 7 6 6 6 7 7 7 7 6 6 4 3 -1 -2 -2 -2 -2 -2 -2 -2 -2 -2 -2 -2 -2 -2 -2 -2
9 9 9 8 8 8 8 7 7 7 8 7 6 6 6 5 3 1 -2 -2 -2 -2 -2 -2 -2 -2 -2 -2 -2 -2 -2 -2 -2
9 9 9 9 9 9 8 7 7 8 8 7 6 6 6 5 4 3 -0 -1 -2 -2 -2 -2 -2 -2 -2 -1 -1 -1 -1 -1 -1
8 8 9 9 9 9 8 8 7 8 7 7 7 6 6 5 4 4 3 -1 -1 -1 -2 -2 -2 -2 -2 -1 -1 -1 -1 -1 -1
8 7 7 8 9 8 8 8 8 8 7 7 7 6 6 5 5 4 4 3 0 -0 -1 -1 -1 -1 -1 -1 -1 -0 -0 -0 -1
7 7 8 7 8 9 9 9 9 8 8 8 7 7 6 6 5 5 4 4 4 1 1 -0 -1 -0 -0 -1 -0 -0 0 -0 -0
7 7 7 7 8 8 8 8 9 9 8 7 7 7 7 6 5 6 5 4 4 4 1 0 -0 1 0 0 0 1 0 0 -0
7 7 7 7 8 8 8 8 9 9 9 6 7 7 7 7 7 7 6 5 5 4 3 3 1 1 1 1 1 1 1 0 0
7 7 7 7 7 8 8 8 8 9 9 8 8 7 7 7 7 8 8 7 6 5 4 4 2 3 2 2 2 1 1 1 1
7 7 7 7 7 7 7 8 8 8 9 10 9 10 8 8 8 8 7 8 7 7 5 4 4 5 6 4 3 2 2 1 1
7 8 8 7 7 7 8 8 8 9 9 9 10 11 11 11 9 9 9 9 8 8 6 5 5 6 6 6 5 3 2 2 1
7 7 8 8 8 7 7 7 8 8 9 9 8 9 10 11 11 10 9 9 8 9 6 6 6 6 6 5 4 3 3 2 2
7 7 8 8 8 8 7 7 8 8 8 9 9 9 9 10 11 12 11 9 9 9 7 7 7 6 6 7 5 3 3 3 2